Location: Newark
(40.3500°N, 15.2333°E)
Time: 01:36:26
(UTC+00:00)

NOAA 19 - Pass Details

Date: 24 February 2020
Orbit: 842 x 860 km, 99.2° (Epoch: 06 April)

Event Time Altitude Azimuth Distance (km) Brightness Sun altitude
Rises 03:18:15 0° 39° (NE) 3,422 9.1 -27.9°
Reaches altitude 10° 03:23:13 10° 79° (ENE) 2,484 8.6 -27.0°
Maximum altitude 03:24:11 10° 89° (E) 2,453 8.6 -26.8°
Drops below altitude 10° 03:25:09 10° 99° (E) 2,483 8.5 -26.6°
Sets 03:30:05 0° 138° (SE) 3,416 8.8 -25.7°
